User: anonymous
Location: Unspecified
(0.0000°N, 0.0000°E)
Time: 09:47:52
(UTC+02:00)
Language:

Cosmos 494 Rocket - Orbit

View from above orbital plane
View from above orbital plane
View from above satellite
View from above satellite

Ground track
Ground track

The orbit data is extracted from the following two-line orbital elements,

1 06061U 72043B   14212.77233409  .00000111  00000-0  43344-4 0  4871
2 06061 074.0595 321.6480 0020580 353.4923 160.2944 14.40162218206938
Epoch (UTC): 31 July 2014 18:32:09
Eccentricity: 0.0020580
inclination: 74.0595°
perigee height: 743 km
apogee height: 772 km
right ascension of ascending node: 321.6480°
argument of perigee: 353.4923°
revolutions per day: 14.40162218
mean anomaly at epoch: 160.2944°
orbit number at epoch: 20693

The dashed part of the orbit path shows where the satellite is in the earth's shadow,  

DLR